Other Public Products
Issued by NWS Grand Forks, ND

Home | Current Version | Previous Version | Graphics & Text | Print | Product List | Glossary On
Versions: 1 2 3 4 5 6 7 8 9 10 11 12 13 14 15 16 17 18 19 20 21 22 23 24 25 26 27 28 29 30 31 32 33 34 35 36 37 38 39 40 41 42 43 44 45 46 47 48 49 50
396
FPUS83 KFGF 281331
OPUFGF
PRAIRIE TO PINES WEATHER ROUNDUP
NATIONAL WEATHER SERVICE EASTERN NORTH DAKOTA/GRAND FORKS ND
800 AM CDT SUN AUG 28 2016

 **SATELLITE DATA USED TO AUGMENT SKY COVER AT AUTOMATED STATIONS**
 *****  WEATHER ACROSS EASTERN NORTH DAKOTA  *****

CITY           SKY/WX    TMP DP  RH WIND       PRES   REMARKS
GRAND FORKS    SUNNY     59  57  93 S8        29.99R
GRAND FORKS AF MOSUNNY   59  57  94 S7        29.99S
GRAND CITY NWS   N/A     61 N/A N/A S10         N/A
BUXTON           N/A     62  62  99 SE12        N/A
DEVILS LAKE    SUNNY     63  61  93 SE10      29.95S
FARGO          SUNNY     65  60  84 SE12      30.01R
WAHPETON ARPT  MOSUNNY   63  59  88 SE9       30.04R
$$

 *****  WEATHER ACROSS CENTRAL AND WESTERN NORTH DAKOTA  *****

CITY           SKY/WX    TMP DP  RH WIND       PRES   REMARKS
JAMESTOWN      CLOUDY    63  61  93 SE7       29.98R
BISMARCK       CLEAR     59  58  96 NE6       29.91R
MINOT          CLEAR     63  53  70 S3        29.86R
MINOT AFB      CLEAR     55  50  82 E2        29.86R
GARRISON         N/A     59  54  83 SE5       29.89R
WILLISTON      PTCLDY    64  52  64 S6        29.84R
DICKINSON      CLEAR     54  51  90 SE5       29.89R
HETTINGER      CLEAR     47  45  93 CALM      29.92R
$$

 *****  OTHER OBSERVATIONS NORTHEAST NORTH DAKOTA  *****

CITY           SKY/WX    TMP DP  RH WIND       PRES   REMARKS
WALHALLA       FAIR      55  55 100 SE6       29.97F FOG
LANGDON        FAIR      63  63 100 SE8       29.97S
CAVALIER       CLOUDY    57  57 100 S7        29.98S FOG
GRAFTON        FAIR      61  61 100 S6G13     30.01R
CANDO          FAIR      61  61 100 SE7       29.95F
FORT TOTTEN      N/A     62  62  98 S8        29.95S
ROLLA          CLOUDY    57  57 100 S6        29.94F FOG
RUGBY          FAIR      63  61  94 SE10G16   29.90S
 ***** THE ABOVE OBSERVATIONS ARE NON NWS ARE NOT QUALITY
        CONTROLLED AND MAY MIS-REPORT RAIN FOR SNOW...
$$

 *****  OTHER OBSERVATIONS SOUTHEAST NORTH DAKOTA *****

CITY           SKY/WX    TMP DP  RH WIND       PRES   REMARKS
COOPERSTOWN    NOT AVBL
VALLEY CITY    FAIR      63  63 100 S9        30.01R
OAKES            N/A    N/A N/A N/A MISG        N/A
GWINNER        FAIR      64  63  94 SE6       30.00S
SHEYENNE NWR     N/A     64  59  85 SE8       29.95
BUFFALO          N/A     61  59  92 SE10        N/A
WYNDMERE         N/A     64  61  88 SE5         N/A
 ***** THE ABOVE OBSERVATIONS ARE NON NWS ARE NOT QUALITY
       CONTROLLED AND MAY MIS-REPORT RAIN FOR SNOW...
$$

  *****  WEATHER ACROSS NORTHERN MINNESOTA  *****

CITY           SKY/WX    TMP DP  RH WIND       PRES   REMARKS
FLAG ISLAND    MOSUNNY   64  61  88 S5        30.06S FOG
WARROAD        SUNNY     57  54  88 SE5       30.07S
ROSEAU         SUNNY     59  54  82 SE6       30.05S
HALLOCK        SUNNY     63  61  94 SE10G16   29.99S
THF RVR FALLS  SUNNY     59  58  96 SE9       30.05R
HALSTAD          N/A     65  63  93 S13         N/A
FOSSTON        SUNNY     61  59  94 SE8       30.07S
BAUDETTE       FOG       57  57 100 SE6       30.08R VSB<1/4
WASKISH          N/A     61  61 100 S6        30.11R FOG
CROOKSTON      SUNNY     64  63  94 S12       30.02S
$$
  *****  WEATHER ACROSS CENTRAL AND WEST MINNESOTA  *****

CITY           SKY/WX    TMP DP  RH WIND       PRES   REMARKS
BEMIDJI        CLOUDY    59  59 100 SE7       30.11R FOG
PARK RAPIDS    FOG       61  59  93 SE8       30.11S VSB 1/2
WADENA         CLOUDY    61  61 100 E5        30.10S FOG
DETROIT LAKES  CLOUDY    61  61 100 SE12      30.08S FOG
MOORHEAD       SUNNY     64  61  88 SE9       30.03S
FERGUS FALLS   CLOUDY    64  64 100 S6        30.07S
ELBOW LAKE     FAIR      63  62  97 SE9       30.07S
MORRIS MN      CLOUDY    63  61  94 SE9       30.06R THUNDER
STAPLES        CLOUDY    61  61 100 SE5       30.11S FOG
WHEATON        MOSUNNY   64  63  94 SE9       30.05S
$$
  *****  WEATHER ELSEWHERE ACROSS MINNESOTA  *****

CITY           SKY/WX    TMP DP  RH WIND       PRES   REMARKS
DULUTH         FOG       59  59 100 SW8       30.17R VSB 1/4
INTRNTL FALLS  FOG       58  58 100 CALM      30.12R VSB 1/2
ELY            FOG       55  55 100 SW6       30.15R VSB 3/4
CLOQUET        CLOUDY    59  57  94 W5        30.16S FOG
BRAINERD       CLOUDY    62  62 100 CALM      30.13R FOG
HIBBING        FOG       57  57 100 S5        30.16R VSB 3/4
ALEXANDRIA     CLOUDY    63  61  93 E8        30.10F
SAINT CLOUD    LGT RAIN  60  60 100 SE9       30.12S VSB 1/2
MINNEAPOLIS    CLOUDY    63  62  97 SE5       30.16R FOG
$$

  *****  WEATHER ACROSS SOUTH DAKOTA  *****

CITY           SKY/WX    TMP DP  RH WIND       PRES   REMARKS
SIOUX FALLS    MOSUNNY   67  65  93 SE7       30.08S
BROOKINGS      PTSUNNY   65  63  93 SE10      30.07S
WATERTOWN      SUNNY     67  61  81 SE10      30.05S
HURON          SUNNY     67  64  90 SE12G22   29.99R
SISSETON         N/A     63  59  87 S12       30.02S
ABERDEEN       SUNNY     67  64  90 SE13      29.98R
MITCHELL       SUNNY     68  65  90 SE9       30.01S
PIERRE         CLEAR     66  64  93 SE7       29.92R
MOBRIDGE       CLEAR     69  62  78 SE14      29.89R
RAPID CITY     CLEAR     52  49  89 CALM      29.95R
$$

  *****  SOME WEATHER IN NEARBY STATES *****

CITY           SKY/WX    TMP DP  RH WIND       PRES   REMARKS
GLASGOW MT     CLOUDY    60  46  59 VRB3      29.83R
GREAT FALLS MT MOCLDY    62  41  46 SW10      29.93R
CHEYENNE WY    CLEAR     54  32  43 W13       30.21R
SCOTTSBLUFF NE CLEAR     55  53  93 CALM      30.08R
OMAHA NE       PTSUNNY   71  66  84 SE6       30.09S
DES MOINES IA  MOSUNNY   72  69  90 E5        30.12R
DAVENPORT IA   PTSUNNY   73  69  87 E3        30.17R
CHICAGO IL     PTSUNNY   75  70  84 E7        30.19S
EAU CLAIRE WI  CLOUDY    63  63 100 SE5       30.17S FOG
LA CROSSE WI   CLOUDY    67  67 100 E5        30.17R FOG
$$

  *****  SOME NATIONAL WEATHER *****

CITY           SKY/WX    TMP DP  RH WIND       PRES   REMARKS
LA GUARDIA NY  MOSUNNY   78  69  73 NE7       30.26S
RALEIGH NC     PTSUNNY   75  71  87 NE7       30.21R
ATLANTA GA     MOSUNNY   77  71  82 E7        30.18R
NEW ORLEANS LA MOSUNNY   84  79  85 NE6       29.99S HX  96
OKLAHOMA CITY  CLOUDY    72  70  93 SE5       30.10R
ALBUQUERQUE NM MOCLDY    57  51  80 N8        30.26R
SALT LAKE CITY CLEAR     67  43  41 SE8       30.12R
LOS ANGELES CA CLEAR     63  59  87 CALM      29.99S
BOISE ID       CLEAR     59  38  45 S6        30.04R
SEATTLE WA     MOCLDY    55  49  80 S6        30.07R
$$

*** WEATHER ACROSS MANITOBA...SASKATCHEWAN AND ONTARIO ***
                ***ONTARIO***

CITY           SKY/WX    TMP DP  RH WIND       PRES   REMARKS
GERALDTON      MOSUNNY   59  55  88 NW5       30.12R
THUNDER BAY    MOSUNNY   55  55 100 W3        30.15R
SIOUX LOOKOUT  MOSUNNY   59  55  88 CALM      30.11R
TORONTO        PTSUNNY   75  63  64 NW5       30.14S
BIG TROUT LK   SUNNY     61  57  88 SW7       30.04R
PICKLE LAKE    CLOUDY    57  55  94 S3        30.09R
DRYDEN         PTSUNNY   57  55  94 SW8       30.11R
KENORA         FOG       57  57 100 S6        30.09R VSB 1/2
$$
                *** MANITOBA***

CITY           SKY/WX    TMP DP  RH WIND       PRES   REMARKS
BRANDON        MOSUNNY   55  55 100 E9        29.89F
DAUPHIN        MOSUNNY   54  50  87 NW5       29.84S
ISLAND LAKE    MOSUNNY   61  57  88 S5        30.00R
PILOT MOUND      N/A     59  57  94 SE9         N/A
THE PAS        CLOUDY    61  59  94 SE12      29.77F
THOMPSON       FOG       54  54 100 E2        29.91R VSB 1/4
WINNIPEG       MOSUNNY   59  55  88 SE12      29.99R
LYNN LAKE      CLOUDY    57  55  94 MISG      29.82S
CHURCHILL      MOSUNNY   52  52 100 SE7       30.01
GILLAM         MOSUNNY   54  54 100 E5        29.96S
$$
                ***SASKATCHEWAN***

CITY           SKY/WX    TMP DP  RH WIND       PRES   REMARKS
ESTEVAN        MOCLDY    61  54  77 SE7       29.81R
KINDERSLEY     MOCLDY    52  50  93 W10       29.87R
LLOYDMINSTER   CLOUDY    50  48  93 W18G28    29.78R FOG
PRINCE ALBERT  PTCLDY    59  52  77 SW6       29.62R
REGINA         CLOUDY    59  50  72 SE7       29.78R
YORKTON        CLOUDY    57  50  77 SE13G18   29.77S   C1F1C2F2C3F3C4F4C5F5C6F6C7F7C8F8C9F9CaFaCbFbCcFcCdFdCe!



USA.gov is the U.S. government's official web portal to all federal, state and local government web resources and services.